Weather History for KRAL - November, 2011

Change the Weather History Date:

Saturday, November 19, 2011

  Actual Average Record
Temperature  
Mean Temperature 57 °F 59 °F  
Max Temperature 64 °F 73 °F 95 °F (1915)
Min Temperature 49 °F 46 °F 28 °F (1921)
Degree Days  
Heating Degree Days 8 6  
Month to date heating degree days 127 82  
Since 1 July heating degree days 152 117  
Cooling Degree Days 0 0  
Month to date cooling degree days 3 24  
Year to date cooling degree days 1711 1753  
Growing Degree Days 6 (Base 50)    
Moisture  
Dew Point 45 °F    
Average Humidity 67    
Maximum Humidity 86    
Minimum Humidity 48    
Precipitation  
Precipitation 0.00 in 0.04 in 0.79 in (1913)
Month to date precipitation 0.78 0.62  
Year to date precipitation 5.89 10.49  
Since 1 July precipitation 1.69 1.30  
Snow  
Snow 0.00 in - - ()
Month to date snowfall 0.0  
Year to date snowfall 0.0  
Since 1 July snowfall 0.0  
Snow Depth 0.00 in    
Sea Level Pressure  
Sea Level Pressure 29.91 in    
Wind  
Wind Speed 2 mph (SSE)    
Max Wind Speed 13 mph    
Max Gust Speed 16 mph    
Visibility 10 miles    
Events      
T = Trace of Precipitation, MM = Missing Value Source: NWS Daily Summary

Daily Weather History Graph

Daily Weather History Graph

Search for Another Location

Airport or City:

Trip Planner

Search our weather history database for the weather conditions in past years. The results will help you decide how hot, cold, wet, or windy it might be!

Date:

Astronomy

Nov. 19, 2011 Rise Set
Actual Time 6:25 AM PST 4:44 PM PST
Civil Twilight 5:59 AM PST 5:10 PM PST
Nautical Twilight 5:28 AM PST 5:41 PM PST
Astronomical Twilight 4:58 AM PST 6:11 PM PST
Moon 12:08 AM PST (11/19) 12:49 PM PST (11/19)
Length of Visible Light 11h 11m
Length of Day
10h 18m
Last Quarter, 37% of the Moon is Illuminated
Nov 19
Last Quarter
Nov 24
New
Dec 2
First Quarter
Dec 10
Full
Dec 17
Last Quarter

Hourly Weather History & Observations

Time (PST) Temp. Dew Point Humidity Pressure Visibility Wind Dir Wind Speed Gust Speed Precip Events Conditions
12:53 AM 51.1 °F 45.0 °F 80% 29.89 in 7.0 mi SE 4.6 mph - N/A   Overcast
1:53 AM 52.0 °F 46.0 °F 80% 29.88 in 8.0 mi Calm Calm - N/A   Overcast
3:53 AM 51.1 °F 46.0 °F 83% 29.87 in 9.0 mi Calm Calm - N/A   Overcast
4:53 AM 50.0 °F 46.0 °F 86% 29.87 in 8.0 mi NE 4.6 mph - N/A   Mostly Cloudy
5:53 AM 48.9 °F 45.0 °F 86% 29.88 in 9.0 mi Calm Calm - N/A   Clear
6:53 AM 50.0 °F 45.0 °F 83% 29.89 in 8.0 mi Calm Calm - N/A   Overcast
7:53 AM 53.1 °F 46.0 °F 77% 29.91 in 9.0 mi Calm Calm - N/A   Mostly Cloudy
8:53 AM 57.0 °F 46.0 °F 67% 29.92 in 10.0 mi South 3.5 mph - N/A   Mostly Cloudy
9:53 AM 59.0 °F 46.0 °F 62% 29.93 in 10.0 mi ESE 3.5 mph - N/A   Mostly Cloudy
10:53 AM 61.0 °F 46.0 °F 58% 29.91 in 10.0 mi Calm Calm - N/A   Mostly Cloudy
11:53 AM 61.0 °F 46.0 °F 58% 29.89 in 10.0 mi WSW 4.6 mph - N/A   Overcast
12:53 PM 63.0 °F 44.1 °F 50% 29.87 in 10.0 mi SSE 5.8 mph - N/A   Mostly Cloudy
1:53 PM 63.0 °F 43.0 °F 48% 29.86 in 10.0 mi SSW 3.5 mph - N/A   Mostly Cloudy
2:53 PM 60.1 °F 45.0 °F 57% 29.86 in 10.0 mi West 8.1 mph - N/A   Overcast
5:53 PM 55.0 °F 44.1 °F 67% 29.89 in 10.0 mi West 8.1 mph - N/A   Mostly Cloudy
6:53 PM 53.1 °F 44.1 °F 71% 29.92 in 10.0 mi West 3.5 mph - N/A   Mostly Cloudy
7:53 PM 54.0 °F 45.0 °F 72% 29.93 in 10.0 mi Calm Calm - N/A   Overcast
8:45 PM 53.6 °F 44.6 °F 72% 29.97 in 10.0 mi Calm Calm - N/A   Mostly Cloudy
9:24 PM 53.6 °F 44.6 °F 72% 29.97 in 10.0 mi Calm Calm - N/A   Overcast
9:32 PM 53.6 °F 44.6 °F 72% 29.97 in 10.0 mi Calm Calm - N/A   Overcast
9:49 PM 53.6 °F 44.6 °F 72% 29.97 in 10.0 mi Calm Calm - N/A   Overcast
9:53 PM 53.1 °F 43.0 °F 69% 29.95 in 10.0 mi East 3.5 mph - N/A   Overcast
10:42 PM 51.8 °F 42.8 °F 71% 29.97 in 10.0 mi ESE 3.5 mph - N/A   Overcast
10:53 PM 51.1 °F 43.0 °F 74% 29.94 in 10.0 mi East 4.6 mph - N/A   Overcast